Location: Le Petit-Vavre
(46.5081°N, 1.5239°E)
Time: 17:23:25
(UTC+00:00)

Cosmos 2242 Rocket - Pass Details

Date: 03 March 2021
Orbit: 617 x 652 km, 82.5° (Epoch: 15 April)

Event Time Altitude Azimuth Distance (km) Brightness Sun altitude
Rises 19:05:20 0° 352° (N) 2,961 7.2 -15.0°
Reaches altitude 10° 19:07:37 10° 354° (N) 2,041 6.4 -15.3°
Maximum altitude 19:12:08 76° 79° (E) 658 3.5 -16.1°
Drops below altitude 10° 19:16:35 10° 167° (SSE) 2,002 6.0 -16.9°
Sets 19:18:48 0° 169° (SSE) 2,899 6.8 -17.3°
